Location: Владивосток
(43.1151°N, 131.8856°E)
Time: 06:31:17
(UTC+10:00)

CUBEBUG 2 - Pass Details

Date: 08 July 2022
Orbit: 584 x 693 km, 97.7° (Epoch: 07 August)

Event Time Altitude Azimuth Distance (km) Brightness Sun altitude
Rises 03:35:03 0° 22° (NNE) 2,862 ? -17.1°
Reaches altitude 10° 03:37:23 10° 32° (NNE) 1,968 ? -16.9°
Maximum altitude 03:41:16 33° 97° (E) 1,041 ? -16.5°
Enters shadow 03:44:54 12° 160° (SSE) 1,890 ? -16.1°
